TOURFACTS.DK  
Stats and Facts from Tour de France.

Tour de France 2019 starts in 348 days
  Riders   Stages   Teams   Summits   Yearly  


 
Search by year

After 2018 - Stage 14:
 15000 starters.
  5163 different riders.
  639 teams.
  2246 stages.
  456 restdays.
  441957.60 km.
  5678 abandonnees.


Top 3
GC
Christopher Froome86:20:55
Rigoberto Urán86:21:49
Romain Bardet86:23:15
Climb
Warren Barguil169 pt.
Primoz Roglic80 pt.
Thomas De Gendt64 pt.
Sprint
Michael Matthews359 pt.
André Greipel234 pt.
Edvald Boasson Hagen220 pt.
Youth
Simon Yates86:27:09
Louis Meintjes86:29:15
Emanuel Buchmann86:54:16
Facts from Tour de France 1933
  |   Stages.  |   Stage winners.  |   Days in yellow  |   Average speed.  |   Route.  |   Teams.  |   All riders.  |   Rookies.  |  

  |   Withdrawls.  |   GC.  |   Polka  |   Green  |   White  |   Summits. (In tour)  |   Miscellaneous.  |  

Stage 4 on June 30th. 1933
         Owning:    Maurice Archambaud    
Pick a stage:  1 2 3 4 5 6 7 8 9 10 11 12 13 14 15 16 17 18 19 20 21 22 23
From: Metz    To: BelfortDist:220.00 km.
Cat: Ballon d'AlsaceESPVicente Trueba
10 points
 

Average speed for all riders in stage:  30,085 km./hr.
    Place:Name:Team:Time:Km/h:
BELJean AertsBELBelgium07:14:15  +  00:00:00=30,397 
FRAFernand CornezTouristes Routiers07:14:15  +  00:00:00=30,397 
ITALearco GuerraITAItaly07:14:15  +  00:00:00=30,397 
4 FRAMaurice ArchambaudFRAFrance07:14:15  +  00:00:00=30,397 
5 FRAAntonin MagneFRAFrance07:14:15  +  00:00:00=30,397 
6 BELLouis HardiquestTouristes Routiers07:14:15  +  00:00:00=30,397 
7 BELGeorges LemaireBELBelgium07:14:15  +  00:00:00=30,397 
8 GERLudwig GeyerDEUGermany-Austria07:14:15  +  00:00:00=30,397 
9 FRAGaspard RinaldiTouristes Routiers07:14:15  +  00:00:00=30,397 
10 ESPVicente TruebaTouristes Routiers07:14:15  +  00:00:00=30,397 
11 ITADomenico PiemontesiITAItaly07:14:15  +  00:00:00=30,397 
12 ITAFrancesco CamussoITAItaly07:15:48  +  00:01:33=30,289 
13 SUIWalter BlattmannCHESwitzerland07:15:48  +  00:01:33=30,289 
14 FRALéon LevelTouristes Routiers07:15:48  +  00:01:33=30,289 
15 ITAGiuseppe MartanoTouristes Routiers07:15:48  +  00:01:33=30,289 
16 BELEmile DecroixTouristes Routiers07:16:25  +  00:02:10=30,246 
17 BELAlfons SchepersBELBelgium07:16:25  +  00:02:10=30,246 
18 SUIAlbert BüchiCHESwitzerland07:16:25  +  00:02:10=30,246 
19 BELGeorges RonsseBELBelgium07:16:25  +  00:02:10=30,246 
20 FRAEugene Le GoffTouristes Routiers07:16:40  +  00:02:25=30,229 
21 FRAAndré LeducqFRAFrance07:16:47  +  00:02:32=30,221 
22 FRALéon Le CalvezFRAFrance07:17:11  +  00:02:56=30,193 
23 FRAGeorges SpeicherFRAFrance07:17:24  +  00:03:09=30,178 
24 BELJoseph MoerenhoutBELBelgium07:17:24  +  00:03:09=30,178 
25 FRAFernand FayolleTouristes Routiers07:17:24  +  00:03:09=30,178 
26 FRARoger LapebieFRAFrance07:17:24  +  00:03:09=30,178 
27 FRALouis PeglionTouristes Routiers07:17:24  +  00:03:09=30,178 
28 SUIAlfred BulaCHESwitzerland07:17:24  +  00:03:09=30,178 
29 SUIGeorges AntenenCHESwitzerland07:17:24  +  00:03:09=30,178 
30 BELGustaaf DeloorBELBelgium07:17:24  +  00:03:09=30,178 
31 SUIRoger PipozCHESwitzerland07:17:24  +  00:03:09=30,178 
32 ITALuigi GiacobbeITAItaly07:17:24  +  00:03:09=30,178 
33 FRAAuguste MoncieroTouristes Routiers07:17:24  +  00:03:09=30,178 
34 FRARené Le GrevesFRAFrance07:17:24  +  00:03:09=30,178 
35 ITAFabio BattesiniITAItaly07:17:24  +  00:03:09=30,178 
36 AUTMax BullaDEUGermany-Austria07:17:24  +  00:03:09=30,178 
37 GERKarl AltenburgerDEUGermany-Austria07:17:24  +  00:03:09=30,178 
38 ITARenato ScorticatiTouristes Routiers07:17:24  +  00:03:09=30,178 
39 GERHermann BuseDEUGermany-Austria07:17:24  +  00:03:09=30,178 
40 BELGaston RebryBELBelgium07:17:24  +  00:03:09=30,178 
41 FRAAndré GaillotTouristes Routiers07:17:24  +  00:03:09=30,178 
42 BELJean WautersBELBelgium07:17:24  +  00:03:09=30,178 
43 SUIAlfred BüchiCHESwitzerland07:17:24  +  00:03:09=30,178 
44 ITALuigi LuisoniCHESwitzerland07:17:24  +  00:03:09=30,178 
45 GEROskar ThierbachDEUGermany-Austria07:17:24  +  00:03:09=30,178 
46 BELKamiel De GraeveTouristes Routiers07:17:24  +  00:03:09=30,178 
47 BELLeopold RoosemontTouristes Routiers07:17:24  +  00:03:09=30,178 
48 ITAGiovanni FirpoTouristes Routiers07:17:24  +  00:03:09=30,178 
49 FRAJean DriancourtTouristes Routiers07:17:24  +  00:03:09=30,178 
50 FRAEmile IgnatTouristes Routiers07:17:24  +  00:03:09=30,178 
51 FRAFrancois HaasTouristes Routiers07:17:24  +  00:03:09=30,178 
52 FRAPierre PastorelliTouristes Routiers07:17:24  +  00:03:09=30,178 
53 ITARafaële Di PacoITAItaly07:20:22  +  00:06:07=29,975 
54 BELJulien VervaeckeTouristes Routiers07:22:59  +  00:08:44=29,798 
55 GERKurt StöpelDEUGermany-Austria07:22:59  +  00:08:44=29,798 
56 FRARobert BrugéreTouristes Routiers07:22:59  +  00:08:44=29,798 
57 FRADécimo BettiniTouristes Routiers07:23:01  +  00:08:46=29,796 
58 FRALéon LouyetTouristes Routiers07:23:30  +  00:09:15=29,763 
59 FRARené BernardTouristes Routiers07:23:30  +  00:09:15=29,763 
60 ITAAllegro GrandiITAItaly07:23:30  +  00:09:15=29,763 
61 BELAntoine DignefTouristes Routiers07:23:30  +  00:09:15=29,763 
62 FRAErnest NeuhardTouristes Routiers07:24:58  +  00:10:43=29,665 
63 FRAPierre-Marie CloarecTouristes Routiers07:26:10  +  00:11:55=29,585 
64 ITAAntonio FolcoTouristes Routiers07:26:10  +  00:11:55=29,585 
65 GERWilly KutschbachDEUGermany-Austria07:27:07  +  00:12:52=29,522 
66 FRAAdrien ButtafocchiTouristes Routiers07:28:01  +  00:13:46=29,463 
67 AUTKarl ThallingerTouristes Routiers07:32:30  +  00:18:15=29,171 
68 ITAVasco BergamaschiITAItaly07:45:35  +  00:31:20=28,352 


Todays birthdays.

1877  Antoine Perrichon
1878  Auguste Berthault
1911  Théo Herckenrath
1924  Carlo Lafranchi
1931  Armand Di Caro
1937  Jean-Claude Lebaube
1951  Giovanni Battaglin
1961  Pascal Jules
1962  Jean-Claude Leclercq
1976  Janek Tombak
1978  Francisco Pérez
1983  Dries Devenyns




Visits: